Location: Bazinghen
(50.8246°N, 1.6616°E)
Time: 18:42:47
(UTC+00:00)

Cosmos 1934 Rocket - Pass Details

Date: 09 April 2020
Orbit: 937 x 1000 km, 83.0° (Epoch: 01 June)

Event Time Altitude Azimuth Distance (km) Brightness Sun altitude
Rises 22:01:41 0° 349° (N) 3,701 8.1 -26.3°
Reaches altitude 10° 22:04:14 10° 348° (NNW) 2,740 7.2 -26.5°
Maximum altitude 22:10:30 78° 264° (W) 992 3.9 -27.0°
Enters shadow 22:11:28 64° 199° (SSW) 1,065 3.9 -27.1°
